Regional Weather Roundup
Issued by NWS

Home | Current Version | Previous Version | Text Only | Print | Product List | Glossary Off
Versions: 1 2 3 4 5 6 7 8 9 10 11 12 13 14 15 16 17 18 19 20 21 22 23 24 25 26 27 28 29 30 31 32 33 34 35 36 37 38 39 40 41 42 43 44 45 46 47 48 49 50

000
ASUS43 KIND 042109
RWRIN

WEATHER ROUNDUP FOR INDIANA
NATIONAL WEATHER SERVICE INDIANAPOLIS IN
500 PM EDT WED MAY 04 2016

NOTE: "FAIR" INDICATES FEW OR NO CLOUDS BELOW 12,000 FEET WITH NO
SIGNIFICANT WEATHER AND/OR OBSTRUCTIONS TO VISIBILITY.

* - STATION DOES NOT REPORT WEATHER SUCH AS PRECIPITATION OR FOG.

+ - STATION NOT QUALITY CONTROLLED BY THE NATIONAL WEATHER SERVICE.
    USE DATA WITH CAUTION...ESPECIALLY DEWPOINT AND RELATIVE
    HUMIDITY OBSERVATIONS.

INZ001>003-010>013-019-020-042200-
NORTHWEST INDIANA

CITY           SKY/WX    TMP DP  RH WIND       PRES   REMARKS
GARY /AIRPORT/ CLOUDY    46  41  81 N12G23    29.82R
KNOX *+        CLOUDY    45  28  53 N30G36    29.77R
LA PORTE +     CLOUDY    46  37  69 N25G32    29.78R
MICHIGAN CITY+ CLOUDY    43  36  75 NW16G24   29.79S
MONTICELLO +   CLOUDY    50  35  57 N24       29.77R
RENSSELAER +   CLOUDY    48  39  71 NW14G20   29.79R
VALPARAISO     CLOUDY    44  35  70 N16G24    29.80R

$$

LMZ046-743>745-042200-
SOUTHERN LAKE MICHIGAN

STATION/POSITION TIME  TEMP    WIND        PRES    WAVE
                       AIR SEA DIR/SP/G            HT
                 (UTC) (F)     (DEG/KT/KT) (MB)    (FT)
BURNS HARBOR     2008   44     360/ 22     1009.5R
MICHIGAN CITY    2000   43     320/ 24/ 27   N/A

$$

INZ004-005-014>016-021>024-042200-
NORTH CENTRAL INDIANA

CITY           SKY/WX    TMP DP  RH WIND       PRES   REMARKS
ELKHART        CLOUDY    41  39  93 NW16G29   29.73R
GOSHEN         LGT RAIN  44  36  73 NW21G33   29.71R
LOGANSPORT +   CLOUDY    48  37  66 NW14G25   29.76S
PERU/GRISSOM   PTSUNNY   52  37  58 NW26G33   29.72F
ROCHESTER +    PTSUNNY   52  37  58 NW24G33   29.74R
SOUTH BEND     LGT RAIN  41  37  86 N25G31    29.75R
WARSAW +       CLOUDY    45  37  76 NW15G25   29.72R

$$

INZ006>009-017-018-025>027-042200-
NORTHEAST INDIANA

CITY           SKY/WX    TMP DP  RH WIND       PRES   REMARKS
ANGOLA *+      CLOUDY    45  36  70 W14       29.65R
AUBURN +       CLOUDY    45  37  76 W18G28    29.67R
FORT WAYNE     CLOUDY    47  39  74 NW15G31   29.68R
HUNTINGTON +   CLOUDY    47  38  70 NW16G28   29.70S

$$

INZ028-029-035-036-043>045-051>053-042200-
WEST CENTRAL INDIANA

CITY           SKY/WX    TMP DP  RH WIND       PRES   REMARKS
CRAWFORDSVL +  CLOUDY    50  40  68 N16G22    29.76S
GREENCASTLE +  CLOUDY    54  43  66 N15       29.76R
LAFAYETTE      CLOUDY    50  37  61 N14       29.77R
TERRE HAUTE    PTSUNNY   58  44  60 N16G25    29.76R

$$

INZ030>032-037>040-046>048-054>057-064-065-042200-
CENTRAL INDIANA

CITY           SKY/WX    TMP DP  RH WIND       PRES   REMARKS
CP ATTERBURY + MOSUNNY   55  39  54 N17       29.73S
COLUMBUS       PTSUNNY   57  45  62 NW18      29.72F
FISHERS *+     CLOUDY    50  41  71 N12G20    29.75
FRANKFORT +      N/A     52  29  42 N21G28    29.77S
GREENWOOD *+   CLOUDY    54  39  58 NW13G23   29.74R
INDIANAPOLIS   PTSUNNY   54  39  57 NW16G24   29.73R
-EAGLE CREEK   CLOUDY    53  38  56 N18G29    29.74R
KOKOMO *+      CLOUDY    50  37  62 NW21G35   29.74R
MARION +       CLOUDY    47  40  75 NW18G33   29.74R
SHELBYVILLE    CLOUDY    57  41  55 NW20      29.71S
ZIONSVILLE +   CLOUDY    51  40  67 N20G28    29.75R

$$

INZ033-034-041-042-049-050-058-059-042200-
EAST CENTRAL INDIANA

CITY           SKY/WX    TMP DP  RH WIND       PRES   REMARKS
MUNCIE         CLOUDY    50  40  68 NW22G31   29.71R

$$

INZ060-061-067>069-081>083-085>088-042200-
SOUTHWEST INDIANA

CITY           SKY/WX    TMP DP  RH WIND       PRES   REMARKS
EVANSVILLE     PTSUNNY   64  39  39 N18G28    29.76R
HUNTINGBURG *+ MOSUNNY   61  43  51 NW15G24   29.73S
WASHINGTON +   LGT RAIN  58  44  58 NW29G39   29.74R

$$

INZ062-063-066-070>080-084-089>092-042200-
SOUTH CENTRAL AND SOUTHEAST INDIANA

CITY           SKY/WX    TMP DP  RH WIND       PRES   REMARKS
BEDFORD +      MOSUNNY   59  48  67 NW9       29.71R
BLOOMINGTON    CLOUDY    57  40  52 N13G22    29.73R
MADISON *+     MOSUNNY   59  41  51 NW15G21   29.71R
NORTH VERNON + MOSUNNY   57  46  67 N17G29    29.72R
SEYMOUR +      MOSUNNY   61  41  48 NW20      29.71R

$$





USA.gov is the U.S. government's official web portal to all federal, state and local government web resources and services.